• In Russia
  • List of Countries
  • For 7 days
  • Water Temperature
  • Satellite Maps
  • Weather Map
  • Weather Widgets
  • user-avatar
    Login

    Hourly Weather Mingachevir

    Today, 23 June, Friday

    Time Temperature Precipitation Wind Pressure Humidity
    00:00 +20°C° 0 mm 1 mps 751 mmHg 81%
    01:00 +20°C° 0 mm 1 mps 751 mmHg 79%
    02:00 +20°C° 0 mm 1 mps 751 mmHg 78%
    03:00 +19°C° 0 mm 2 mps 751 mmHg 77%
    04:00 +20°C° 0 mm 2 mps 751 mmHg 73%
    05:00 +21°C° 0 mm 2 mps 752 mmHg 69%
    06:00 +23°C° 0 mm 2 mps 752 mmHg 65%
    07:00 +24°C° 0 mm 2 mps 752 mmHg 59%
    08:00 +26°C° 0 mm 3 mps 752 mmHg 53%
    09:00 +28°C° 0 mm 3 mps 752 mmHg 47%
    10:00 +29°C° 0.1 mm 3 mps 752 mmHg 45%
    11:00 +29°C° 0.1 mm 2 mps 751 mmHg 42%
    12:00 +30°C° 0.1 mm 2 mps 751 mmHg 40%
    13:00 +31°C° 0.1 mm 1 mps 751 mmHg 38%
    14:00 +31°C° 0.1 mm 1 mps 751 mmHg 37%
    15:00 +32°C° 0.1 mm 1 mps 750 mmHg 36%
    16:00 +32°C° 0.1 mm 1 mps 751 mmHg 38%
    17:00 +31°C° 0.1 mm 1 mps 751 mmHg 39%
    18:00 +31°C° 0.1 mm 1 mps 751 mmHg 41%
    19:00 +29°C° 0.2 mm 2 mps 751 mmHg 46%
    20:00 +27°C° 0.2 mm 2 mps 752 mmHg 52%
    21:00 +24°C° 0.2 mm 3 mps 752 mmHg 58%
    22:00 +24°C° 0.1 mm 2 mps 752 mmHg 60%
    23:00 +23°C° 0.1 mm 2 mps 753 mmHg 63%

    Tomorrow, 24 June, Saturday

    Time Temperature Precipitation Wind Pressure Humidity
    00:00 +22°C° 0.1 mm 1 mps 753 mmHg 65%
    01:00 +22°C° 0 mm 1 mps 753 mmHg 66%
    02:00 +21°C° 0 mm 1 mps 753 mmHg 67%
    03:00 +21°C° 0 mm 1 mps 753 mmHg 68%
    04:00 +22°C° 0 mm 1 mps 753 mmHg 65%
    05:00 +23°C° 0 mm 1 mps 753 mmHg 63%
    06:00 +24°C° 0 mm 1 mps 753 mmHg 60%
    07:00 +25°C° 0 mm 1 mps 753 mmHg 56%
    08:00 +26°C° 0 mm 2 mps 752 mmHg 52%
    09:00 +28°C° 0 mm 2 mps 752 mmHg 48%
    10:00 +29°C° 0 mm 2 mps 751 mmHg 46%
    11:00 +30°C° 0 mm 1 mps 751 mmHg 43%
    12:00 +31°C° 0 mm 1 mps 750 mmHg 41%
    13:00 +32°C° 0 mm 1 mps 750 mmHg 39%
    14:00 +32°C° 0 mm 1 mps 749 mmHg 38%
    15:00 +33°C° 0 mm 1 mps 749 mmHg 37%
    16:00 +32°C° 0 mm 1 mps 749 mmHg 38%
    17:00 +32°C° 0 mm 1 mps 748 mmHg 39%
    18:00 +32°C° 0 mm 1 mps 748 mmHg 40%
    19:00 +30°C° 0 mm 1 mps 749 mmHg 45%
    20:00 +28°C° 0 mm 1 mps 749 mmHg 50%
    21:00 +25°C° 0 mm 1 mps 750 mmHg 55%
    22:00 +25°C° 0 mm 1 mps 750 mmHg 56%
    23:00 +24°C° 0 mm 1 mps 750 mmHg 58%

    Day after tomorrow, 25 June, Sunday

    Time Temperature Precipitation Wind Pressure Humidity
    00:00 +23°C° 0 mm 2 mps 750 mmHg 59%
    01:00 +23°C° 0 mm 1 mps 750 mmHg 62%
    02:00 +22°C° 0 mm 1 mps 750 mmHg 65%
    03:00 +20°C° 0 mm 0 mps 750 mmHg 68%
    04:00 +23°C° 0 mm 1 mps 750 mmHg 64%
    05:00 +24°C° 0 mm 1 mps 750 mmHg 61%
    06:00 +26°C° 0 mm 1 mps 750 mmHg 57%
    07:00 +27°C° 0 mm 2 mps 750 mmHg 49%
    08:00 +29°C° 0 mm 3 mps 750 mmHg 42%
    09:00 +32°C° 0 mm 4 mps 750 mmHg 35%
    10:00 +33°C° 0 mm 4 mps 749 mmHg 33%
    11:00 +35°C° 0 mm 4 mps 749 mmHg 31%
    12:00 +36°C° 0 mm 5 mps 749 mmHg 29%
    13:00 +36°C° 0.1 mm 4 mps 749 mmHg 28%
    14:00 +37°C° 0.1 mm 4 mps 749 mmHg 26%
    15:00 +37°C° 0.1 mm 4 mps 748 mmHg 25%
    16:00 +37°C° 0 mm 3 mps 749 mmHg 27%
    17:00 +36°C° 0 mm 2 mps 749 mmHg 29%
    18:00 +35°C° 0 mm 1 mps 750 mmHg 31%
    19:00 +32°C° 0 mm 2 mps 750 mmHg 35%
    20:00 +30°C° 0 mm 3 mps 751 mmHg 40%
    21:00 +27°C° 0 mm 3 mps 752 mmHg 45%
    22:00 +26°C° 0 mm 3 mps 752 mmHg 49%
    23:00 +26°C° 0 mm 3 mps 752 mmHg 54%

    26 June, Monday

    Time Temperature Precipitation Wind Pressure Humidity
    00:00 +25°C° 0 mm 2 mps 753 mmHg 58%
    01:00 +24°C° 0 mm 2 mps 753 mmHg 60%
    02:00 +24°C° 0 mm 2 mps 753 mmHg 62%
    03:00 +23°C° 0 mm 1 mps 753 mmHg 64%
    04:00 +24°C° 0 mm 2 mps 753 mmHg 62%
    05:00 +25°C° 0 mm 2 mps 753 mmHg 59%
    06:00 +26°C° 0 mm 2 mps 754 mmHg 57%
    07:00 +27°C° 0 mm 3 mps 754 mmHg 52%
    08:00 +29°C° 0 mm 3 mps 754 mmHg 47%
    09:00 +30°C° 0 mm 4 mps 754 mmHg 42%
    10:00 +32°C° 0 mm 4 mps 753 mmHg 40%
    11:00 +34°C° 0 mm 4 mps 753 mmHg 38%
    12:00 +35°C° 0 mm 4 mps 753 mmHg 35%
    13:00 +35°C° 0 mm 4 mps 752 mmHg 34%
    14:00 +36°C° 0 mm 4 mps 752 mmHg 33%
    15:00 +36°C° 0 mm 4 mps 752 mmHg 32%
    16:00 +35°C° 0 mm 4 mps 752 mmHg 34%
    17:00 +35°C° 0 mm 4 mps 752 mmHg 35%
    18:00 +34°C° 0 mm 4 mps 752 mmHg 37%
    19:00 +32°C° 0 mm 4 mps 753 mmHg 42%
    20:00 +29°C° 0 mm 4 mps 753 mmHg 47%
    21:00 +27°C° 0 mm 4 mps 754 mmHg 52%
    22:00 +26°C° 0 mm 3 mps 754 mmHg 55%
    23:00 +25°C° 0 mm 3 mps 754 mmHg 59%

    27 June, Tuesday

    Time Temperature Precipitation Wind Pressure Humidity
    00:00 +24°C° 0 mm 2 mps 754 mmHg 63%
    01:00 +24°C° 0 mm 2 mps 754 mmHg 65%
    02:00 +23°C° 0 mm 1 mps 753 mmHg 68%
    03:00 +22°C° 0 mm 1 mps 753 mmHg 70%
    04:00 +23°C° 0 mm 1 mps 753 mmHg 67%
    05:00 +24°C° 0 mm 1 mps 754 mmHg 65%
    06:00 +23°C° 0 mm 0 mps 754 mmHg 62%
    07:00 +27°C° 0 mm 1 mps 754 mmHg 55%
    08:00 +29°C° 0 mm 1 mps 753 mmHg 49%
    09:00 +30°C° 0 mm 2 mps 753 mmHg 43%
    10:00 +32°C° 0 mm 2 mps 753 mmHg 39%
    11:00 +34°C° 0 mm 2 mps 752 mmHg 36%
    12:00 +35°C° 0 mm 2 mps 752 mmHg 32%
    13:00 +36°C° 0 mm 3 mps 751 mmHg 31%
    14:00 +37°C° 0 mm 3 mps 751 mmHg 29%
    15:00 +37°C° 0 mm 3 mps 751 mmHg 28%
    16:00 +37°C° 0 mm 3 mps 751 mmHg 29%
    17:00 +37°C° 0 mm 3 mps 751 mmHg 30%
    18:00 +36°C° 0 mm 3 mps 751 mmHg 31%
    19:00 +34°C° 0 mm 4 mps 751 mmHg 35%
    20:00 +32°C° 0 mm 4 mps 752 mmHg 38%
    21:00 +29°C° 0 mm 4 mps 752 mmHg 41%
    22:00 +28°C° 0 mm 3 mps 752 mmHg 43%
    23:00 +27°C° 0 mm 3 mps 752 mmHg 45%

    28 June, Wednesday

    Time Temperature Precipitation Wind Pressure Humidity
    00:00 +26°C° 0 mm 2 mps 752 mmHg 47%
    01:00 +25°C° 0 mm 2 mps 752 mmHg 48%
    02:00 +24°C° 0 mm 1 mps 752 mmHg 50%
    03:00 +24°C° 0 mm 1 mps 752 mmHg 51%
    04:00 +25°C° 0 mm 1 mps 752 mmHg 49%
    05:00 +26°C° 0 mm 1 mps 752 mmHg 47%
    06:00 +27°C° 0 mm 1 mps 752 mmHg 44%
    07:00 +29°C° 0 mm 1 mps 752 mmHg 39%
    08:00 +30°C° 0 mm 1 mps 752 mmHg 34%
    09:00 +32°C° 0 mm 2 mps 751 mmHg 30%
    10:00 +34°C° 0 mm 2 mps 751 mmHg 28%
    11:00 +36°C° 0 mm 3 mps 750 mmHg 26%
    12:00 +37°C° 0 mm 3 mps 750 mmHg 24%
    13:00 +38°C° 0 mm 3 mps 749 mmHg 24%
    14:00 +38°C° 0 mm 4 mps 749 mmHg 23%
    15:00 +40°C° 0 mm 4 mps 748 mmHg 22%
    16:00 +38°C° 0 mm 4 mps 749 mmHg 24%
    17:00 +38°C° 0 mm 4 mps 749 mmHg 25%
    18:00 +37°C° 0 mm 4 mps 749 mmHg 27%
    19:00 +35°C° 0 mm 4 mps 749 mmHg 30%
    20:00 +33°C° 0 mm 4 mps 749 mmHg 33%
    21:00 +29°C° 0 mm 4 mps 750 mmHg 37%
    22:00 +28°C° 0 mm 3 mps 750 mmHg 39%
    23:00 +27°C° 0 mm 2 mps 750 mmHg 41%
    Show more